Time,TemperatureF,DewpointF,PressureIn,WindDirection,WindDirectionDegrees,WindSpeedMPH,WindSpeedGustMPH,Humidity,HourlyPrecipIn,Conditions,Clouds,dailyrainin,SoftwareType,DateUTC
2013-05-17 00:09:00,49.1,42.2,29.75,South,180,0.0,-999.0,77,-99.99,,,0.00,Acu-Link.com,2013-05-17 04:09:00,
2013-05-17 00:24:00,48.4,42.2,29.76,South,180,0.0,-999.0,79,-99.99,,,0.00,Acu-Link.com,2013-05-17 04:24:00,
2013-05-17 00:39:00,47.5,42.3,29.76,South,180,0.0,-999.0,82,-99.99,,,0.00,Acu-Link.com,2013-05-17 04:39:00,
2013-05-17 00:54:00,47.1,42.2,29.77,South,180,0.0,-999.0,83,-99.99,,,0.00,Acu-Link.com,2013-05-17 04:54:00,
2013-05-17 01:10:00,46.9,42.0,29.77,South,180,0.0,-999.0,83,-99.99,,,0.00,Acu-Link.com,2013-05-17 05:10:00,
2013-05-17 01:25:00,46.6,42.0,29.78,South,180,0.0,-999.0,84,-99.99,,,0.00,Acu-Link.com,2013-05-17 05:25:00,
2013-05-17 01:40:00,46.0,41.7,29.78,South,180,0.0,-999.0,85,-99.99,,,0.00,Acu-Link.com,2013-05-17 05:40:00,
2013-05-17 01:55:00,45.7,41.5,29.78,South,180,0.0,-999.0,85,-99.99,,,0.00,Acu-Link.com,2013-05-17 05:55:00,
2013-05-17 02:10:00,45.5,41.3,29.78,South,180,0.0,-999.0,85,-99.99,,,0.00,Acu-Link.com,2013-05-17 06:10:00,
2013-05-17 02:25:00,45.0,40.8,29.79,South,180,0.0,-999.0,85,-99.99,,,0.00,Acu-Link.com,2013-05-17 06:25:00,
2013-05-17 02:40:00,44.4,40.2,29.79,South,180,0.0,-999.0,85,-99.99,,,0.00,Acu-Link.com,2013-05-17 06:40:00,
2013-05-17 02:55:00,44.1,40.2,29.80,South,180,0.0,-999.0,86,-99.99,,,0.00,Acu-Link.com,2013-05-17 06:55:00,
2013-05-17 03:10:00,43.9,40.3,29.80,South,180,0.0,-999.0,87,-99.99,,,0.00,Acu-Link.com,2013-05-17 07:10:00,
2013-05-17 03:25:00,44.6,40.7,29.82,South,180,0.0,-999.0,86,-99.99,,,0.00,Acu-Link.com,2013-05-17 07:25:00,
2013-05-17 03:41:00,44.6,40.7,29.81,South,180,0.0,-999.0,86,-99.99,,,0.00,Acu-Link.com,2013-05-17 07:41:00,
2013-05-17 03:56:00,44.2,39.7,29.81,South,180,0.0,-999.0,84,-99.99,,,0.00,Acu-Link.com,2013-05-17 07:56:00,
2013-05-17 04:12:00,44.1,39.9,29.82,South,180,0.0,-999.0,85,-99.99,,,0.00,Acu-Link.com,2013-05-17 08:12:00,
2013-05-17 04:27:00,43.9,39.7,29.82,South,180,0.0,-999.0,85,-99.99,,,0.00,Acu-Link.com,2013-05-17 08:27:00,
2013-05-17 04:42:00,43.7,39.5,29.83,South,180,0.0,-999.0,85,-99.99,,,0.00,Acu-Link.com,2013-05-17 08:42:00,
2013-05-17 04:57:00,43.3,38.5,29.83,South,180,0.0,-999.0,83,-99.99,,,0.00,Acu-Link.com,2013-05-17 08:57:00,
2013-05-17 05:12:00,43.2,39.0,29.84,South,180,0.0,-999.0,85,-99.99,,,0.00,Acu-Link.com,2013-05-17 09:12:00,
2013-05-17 05:27:00,43.0,38.2,29.86,South,180,0.0,-999.0,83,-99.99,,,0.00,Acu-Link.com,2013-05-17 09:27:00,
2013-05-17 05:42:00,42.8,38.6,29.87,South,180,0.0,-999.0,85,-99.99,,,0.00,Acu-Link.com,2013-05-17 09:42:00,
2013-05-17 05:58:00,42.6,38.4,29.88,South,180,1.7,-999.0,85,-99.99,,,0.00,Acu-Link.com,2013-05-17 09:58:00,
2013-05-17 06:13:00,43.5,39.0,29.90,South,180,0.0,-999.0,84,-99.99,,,0.00,Acu-Link.com,2013-05-17 10:13:00,
2013-05-17 06:28:00,44.6,38.8,29.91,South,180,0.0,-999.0,80,-99.99,,,0.00,Acu-Link.com,2013-05-17 10:28:00,
2013-05-17 06:43:00,45.1,38.7,29.91,South,180,0.0,-999.0,78,-99.99,,,0.00,Acu-Link.com,2013-05-17 10:43:00,
2013-05-17 06:58:00,47.1,39.6,29.91,South,180,1.1,-999.0,75,-99.99,,,0.00,Acu-Link.com,2013-05-17 10:58:00,
2013-05-17 07:13:00,48.7,39.4,29.92,South,180,1.7,-999.0,70,-99.99,,,0.00,Acu-Link.com,2013-05-17 11:13:00,
2013-05-17 07:28:00,49.6,40.2,29.94,South,180,0.0,-999.0,70,-99.99,,,0.00,Acu-Link.com,2013-05-17 11:28:00,
2013-05-17 07:43:00,50.4,40.6,29.94,South,180,2.2,-999.0,69,-99.99,,,0.00,Acu-Link.com,2013-05-17 11:43:00,
2013-05-17 07:58:00,50.5,40.7,29.94,ESE,112,0.0,-999.0,69,-99.99,,,0.00,Acu-Link.com,2013-05-17 11:58:00,
2013-05-17 08:13:00,50.9,41.5,29.94,ESE,112,1.7,-999.0,70,-99.99,,,0.00,Acu-Link.com,2013-05-17 12:13:00,
2013-05-17 08:29:00,52.9,41.5,29.94,South,180,1.7,-999.0,65,-99.99,,,0.00,Acu-Link.com,2013-05-17 12:29:00,
2013-05-17 08:44:00,52.5,41.5,29.95,South,180,3.7,-999.0,66,-99.99,,,0.00,Acu-Link.com,2013-05-17 12:44:00,
2013-05-17 08:59:00,52.0,41.4,29.95,South,180,0.0,-999.0,67,-99.99,,,0.00,Acu-Link.com,2013-05-17 12:59:00,
2013-05-17 09:14:00,55.0,42.2,29.95,South,180,3.2,-999.0,62,-99.99,,,0.00,Acu-Link.com,2013-05-17 13:14:00,
2013-05-17 09:29:00,54.5,42.6,29.96,South,180,2.2,-999.0,64,-99.99,,,0.00,Acu-Link.com,2013-05-17 13:29:00,
2013-05-17 09:44:00,54.9,42.1,29.96,SSE,157,3.2,-999.0,62,-99.99,,,0.00,Acu-Link.com,2013-05-17 13:44:00,
2013-05-17 09:59:00,54.1,41.4,29.96,South,180,4.7,-999.0,62,-99.99,,,0.00,Acu-Link.com,2013-05-17 13:59:00,
2013-05-17 10:14:00,54.1,41.0,29.97,SW,225,2.2,-999.0,61,-99.99,,,0.00,Acu-Link.com,2013-05-17 14:14:00,
2013-05-17 10:29:00,55.9,40.9,29.97,SSE,157,2.2,-999.0,57,-99.99,,,0.00,Acu-Link.com,2013-05-17 14:29:00,
2013-05-17 10:45:00,56.3,40.3,29.97,WSW,247,2.2,-999.0,55,-99.99,,,0.00,Acu-Link.com,2013-05-17 14:45:00,
2013-05-17 11:00:00,55.8,40.8,29.98,SSE,157,2.2,-999.0,57,-99.99,,,0.00,Acu-Link.com,2013-05-17 15:00:00,
2013-05-17 11:15:00,59.5,40.8,29.98,SW,225,2.7,-999.0,50,-99.99,,,0.00,Acu-Link.com,2013-05-17 15:15:00,
2013-05-17 11:30:00,59.0,40.9,29.98,SW,225,3.7,-999.0,51,-99.99,,,0.00,Acu-Link.com,2013-05-17 15:30:00,
2013-05-17 11:45:00,58.6,40.5,29.98,South,180,2.7,-999.0,51,-99.99,,,0.00,Acu-Link.com,2013-05-17 15:45:00,
2013-05-17 12:00:00,61.0,41.2,29.98,South,180,2.2,-999.0,48,-99.99,,,0.00,Acu-Link.com,2013-05-17 16:00:00,
2013-05-17 12:15:00,59.0,39.9,29.98,South,180,1.7,-999.0,49,-99.99,,,0.00,Acu-Link.com,2013-05-17 16:15:00,
2013-05-17 12:30:00,60.8,40.4,29.98,South,180,1.1,-999.0,47,-99.99,,,0.00,Acu-Link.com,2013-05-17 16:30:00,
2013-05-17 12:45:00,61.9,40.3,29.98,South,180,2.2,-999.0,45,-99.99,,,0.00,Acu-Link.com,2013-05-17 16:45:00,
2013-05-17 13:01:00,63.3,40.4,29.97,SSE,157,2.7,-999.0,43,-99.99,,,0.00,Acu-Link.com,2013-05-17 17:01:00,
2013-05-17 13:16:00,60.1,39.8,29.98,South,180,2.7,-999.0,47,-99.99,,,0.00,Acu-Link.com,2013-05-17 17:16:00,
2013-05-17 13:31:00,61.0,40.1,29.98,South,180,2.7,-999.0,46,-99.99,,,0.00,Acu-Link.com,2013-05-17 17:31:00,
2013-05-17 13:46:00,62.6,39.2,29.98,ESE,112,2.7,-999.0,42,-99.99,,,0.00,Acu-Link.com,2013-05-17 17:46:00,
2013-05-17 14:01:00,64.9,40.6,29.98,SSW,202,2.7,-999.0,41,-99.99,,,0.00,Acu-Link.com,2013-05-17 18:01:00,
2013-05-17 14:16:00,64.2,38.7,29.99,SSW,202,3.2,-999.0,39,-99.99,,,0.00,Acu-Link.com,2013-05-17 18:16:00,
2013-05-17 14:31:00,66.7,40.3,29.99,SSW,202,4.2,-999.0,38,-99.99,,,0.00,Acu-Link.com,2013-05-17 18:31:00,
2013-05-17 14:46:00,68.9,40.1,29.98,SSW,202,1.7,-999.0,35,-99.99,,,0.00,Acu-Link.com,2013-05-17 18:46:00,
2013-05-17 15:01:00,66.7,38.9,29.98,South,180,3.2,-999.0,36,-99.99,,,0.00,Acu-Link.com,2013-05-17 19:01:00,
2013-05-17 15:17:00,66.4,39.3,29.98,NW,315,2.7,-999.0,37,-99.99,,,0.00,Acu-Link.com,2013-05-17 19:17:00,
2013-05-17 15:32:00,65.5,37.8,29.98,SSE,157,2.7,-999.0,36,-99.99,,,0.00,Acu-Link.com,2013-05-17 19:32:00,
2013-05-17 15:47:00,65.5,39.9,29.98,SW,225,1.1,-999.0,39,-99.99,,,0.00,Acu-Link.com,2013-05-17 19:47:00,
2013-05-17 16:02:00,65.5,38.5,29.99,SW,225,3.7,-999.0,37,-99.99,,,0.00,Acu-Link.com,2013-05-17 20:02:00,
2013-05-17 16:17:00,64.8,38.6,29.99,SW,225,1.7,-999.0,38,-99.99,,,0.00,Acu-Link.com,2013-05-17 20:17:00,
2013-05-17 16:32:00,64.8,38.6,29.99,NNE,22,2.7,-999.0,38,-99.99,,,0.00,Acu-Link.com,2013-05-17 20:32:00,
2013-05-17 16:47:00,64.9,38.0,30.00,South,180,1.7,-999.0,37,-99.99,,,0.00,Acu-Link.com,2013-05-17 20:47:00,
2013-05-17 17:02:00,62.8,36.1,30.01,SW,225,6.3,-999.0,37,-99.99,,,0.00,Acu-Link.com,2013-05-17 21:02:00,
2013-05-17 17:17:00,62.8,34.7,30.01,SE,135,3.7,-999.0,35,-99.99,,,0.00,Acu-Link.com,2013-05-17 21:17:00,
2013-05-17 17:33:00,63.0,36.3,30.01,NNW,337,1.7,-999.0,37,-99.99,,,0.00,Acu-Link.com,2013-05-17 21:33:00,
2013-05-17 17:48:00,62.8,35.4,30.01,SSE,157,2.2,-999.0,36,-99.99,,,0.00,Acu-Link.com,2013-05-17 21:48:00,
2013-05-17 18:03:00,61.9,35.3,30.01,SSW,202,4.2,-999.0,37,-99.99,,,0.00,Acu-Link.com,2013-05-17 22:03:00,
2013-05-17 18:18:00,61.9,35.3,30.02,NNW,337,1.1,-999.0,37,-99.99,,,0.00,Acu-Link.com,2013-05-17 22:18:00,
2013-05-17 18:33:00,61.2,34.7,30.03,NNW,337,2.2,-999.0,37,-99.99,,,0.00,Acu-Link.com,2013-05-17 22:33:00,
2013-05-17 18:48:00,60.3,35.9,30.03,West,270,0.0,-999.0,40,-99.99,,,0.00,Acu-Link.com,2013-05-17 22:48:00,
2013-05-17 19:03:00,59.5,36.4,30.03,ENE,67,2.2,-999.0,42,-99.99,,,0.00,Acu-Link.com,2013-05-17 23:03:00,
2013-05-17 19:19:00,58.6,36.2,30.04,NNE,22,0.0,-999.0,43,-99.99,,,0.00,Acu-Link.com,2013-05-17 23:19:00,
2013-05-17 19:34:00,57.4,37.9,30.05,NNE,22,0.0,-999.0,48,-99.99,,,0.00,Acu-Link.com,2013-05-17 23:34:00,
2013-05-17 19:49:00,55.9,39.5,30.05,NNE,22,0.0,-999.0,54,-99.99,,,0.00,Acu-Link.com,2013-05-17 23:49:00,
2013-05-17 20:04:00,54.7,39.3,30.06,NNE,22,0.0,-999.0,56,-99.99,,,0.00,Acu-Link.com,2013-05-18 00:04:00,
2013-05-17 20:19:00,53.2,40.1,30.06,NNE,22,0.0,-999.0,61,-99.99,,,0.00,Acu-Link.com,2013-05-18 00:19:00,
2013-05-17 20:34:00,51.8,39.6,30.07,NNE,22,0.0,-999.0,63,-99.99,,,0.00,Acu-Link.com,2013-05-18 00:34:00,
2013-05-17 20:49:00,50.7,39.8,30.08,NNE,22,0.0,-999.0,66,-99.99,,,0.00,Acu-Link.com,2013-05-18 00:49:00,
2013-05-17 21:04:00,49.3,39.9,30.09,NNE,22,0.0,-999.0,70,-99.99,,,0.00,Acu-Link.com,2013-05-18 01:04:00,
2013-05-17 21:19:00,48.4,39.4,30.10,NNE,22,0.0,-999.0,71,-99.99,,,0.00,Acu-Link.com,2013-05-18 01:19:00,
2013-05-17 21:35:00,47.5,39.3,30.11,NNE,22,0.0,-999.0,73,-99.99,,,0.00,Acu-Link.com,2013-05-18 01:35:00,
2013-05-17 21:50:00,46.8,39.3,30.11,NNE,22,0.0,-999.0,75,-99.99,,,0.00,Acu-Link.com,2013-05-18 01:50:00,
2013-05-17 22:05:00,46.0,39.2,30.12,NNE,22,0.0,-999.0,77,-99.99,,,0.00,Acu-Link.com,2013-05-18 02:05:00,
2013-05-17 22:20:00,45.5,39.0,30.12,NNE,22,0.0,-999.0,78,-99.99,,,0.00,Acu-Link.com,2013-05-18 02:20:00,
2013-05-17 22:35:00,44.6,39.1,30.12,NNE,22,0.0,-999.0,81,-99.99,,,0.00,Acu-Link.com,2013-05-18 02:35:00,
2013-05-17 22:50:00,44.1,39.0,30.13,NNE,22,0.0,-999.0,82,-99.99,,,0.00,Acu-Link.com,2013-05-18 02:50:00,
2013-05-17 23:05:00,43.5,38.7,30.12,NNE,22,0.0,-999.0,83,-99.99,,,0.00,Acu-Link.com,2013-05-18 03:05:00,
2013-05-17 23:20:00,43.0,38.2,30.13,NNE,22,0.0,-999.0,83,-99.99,,,0.00,Acu-Link.com,2013-05-18 03:20:00,
2013-05-17 23:35:00,42.4,38.2,30.13,NNE,22,0.0,-999.0,85,-99.99,,,0.00,Acu-Link.com,2013-05-18 03:35:00,
2013-05-17 23:51:00,42.1,38.5,30.13,NNE,22,0.0,-999.0,87,-99.99,,,0.00,Acu-Link.com,2013-05-18 03:51:00,